Location: *
(43.9900°N, 3.4811°E)
Time: 11:48:52
(UTC+00:00)

SPOT 3 Rocket - Pass Details

Date: 25 August 2019
Orbit: 779 x 795 km, 98.8° (Epoch: 22 September)

Event Time Altitude Azimuth Distance (km) Brightness Sun altitude
Rises 19:03:45 0° 154° (SSE) 3,268 6.3 -5.8°
Reaches altitude 10° 19:06:05 10° 150° (SSE) 2,341 5.6 -6.2°
Maximum altitude 19:11:10 61° 72° (ENE) 890 3.7 -7.0°
Drops below altitude 10° 19:16:16 10° 353° (N) 2,347 6.5 -7.9°
Sets 19:18:36 0° 350° (N) 3,278 7.3 -8.2°
